EW8567 Weather Reports


Display with metric or nautical units.
time (UTC)temp
F
wind
direction
speed
MPH
gust
MPH
rain 1hr
in
rain 24hr
in
rain mn
in
humidity
%
barometer
mb
20181117114007 29 292 7.0 13.0 0.00 0.00 0.00 70 1021.6
20181117113504 29 284 7.0 15.0 0.00 0.00 0.00 70 1021.5
20181117113007 29 286 8.0 15.0 0.00 0.00 0.00 70 1021.6
20181117112504 29 292 7.0 15.0 0.00 0.00 0.00 70 1021.6
20181117112007 29 287 6.0 15.0 0.00 0.00 0.00 70 1021.6
20181117111503 30 284 5.0 10.0 0.00 0.00 0.00 70 1021.7
20181117111008 30 297 5.0 10.0 0.00 0.00 0.00 70 1021.7
20181117110505 30 305 5.0 10.0 0.00 0.00 0.00 70 1021.7
20181117110008 30 302 4.0 10.0 0.00 0.00 0.00 70 1021.8
20181117105505 30 298 4.0 11.0 0.00 0.00 0.00 70 1021.7
20181117105008 30 304 6.0 11.0 0.00 0.00 0.00 70 1021.8
20181117104503 30 294 6.0 11.0 0.00 0.00 0.00 70 1021.7
20181117104007 30 287 5.0 10.0 0.00 0.00 0.00 70 1021.7
20181117103504 30 293 5.0 9.0 0.00 0.00 0.00 71 1021.7
20181117103007 30 285 5.0 13.0 0.00 0.00 0.00 71 1021.7
20181117102504 30 284 6.0 13.0 0.00 0.00 0.00 71 1021.7
20181117102007 30 297 5.0 11.0 0.00 0.00 0.00 71 1021.7
20181117101504 30 300 6.0 12.0 0.00 0.00 0.00 71 1021.9
20181117101006 30 290 6.0 12.0 0.00 0.00 0.00 72 1021.8
20181117100504 30 299 5.0 11.0 0.00 0.00 0.00 73 1021.7
20181117100007 29 301 6.0 14.0 0.00 0.00 0.00 73 1021.7
20181117095503 29 291 6.0 14.0 0.00 0.00 0.00 73 1021.8
20181117095008 29 284 5.0 9.0 0.00 0.00 0.00 74 1021.7
20181117094504 29 275 6.0 10.0 0.00 0.00 0.00 74 1021.7
20181117094007 29 279 6.0 13.0 0.00 0.00 0.00 74 1021.8
20181117093504 29 270 7.0 14.0 0.00 0.00 0.00 73 1021.8
20181117093007 29 269 8.0 14.0 0.00 0.00 0.00 73 1021.8
20181117092504 29 272 8.0 15.0 0.00 0.00 0.00 72 1021.9
20181117092008 29 292 7.0 15.0 0.00 0.00 0.00 72 1021.9
20181117091504 29 305 7.0 15.0 0.00 0.00 0.00 73 1021.9
20181117091007 29 290 7.0 14.0 0.00 0.00 0.00 73 1021.9
20181117090505 29 285 7.0 12.0 0.00 0.00 0.00 73 1022.0
20181117090007 29 283 7.0 12.0 0.00 0.00 0.00 74 1022.0
20181117085504 29 285 5.0 11.0 0.00 0.00 0.00 74 1021.9
20181117085008 29 283 5.0 12.0 0.00 0.00 0.00 75 1021.9
20181117084504 29 280 6.0 12.0 0.00 0.00 0.00 75 1022.1
20181117084007 29 290 7.0 13.0 0.00 0.00 0.00 75 1022.1
20181117083504 29 289 7.0 13.0 0.00 0.00 0.00 75 1022.1
20181117083009 29 285 7.0 13.0 0.00 0.00 0.00 76 1022.1
20181117082505 29 292 7.0 15.0 0.00 0.00 0.00 76 1022.2
20181117082007 28 291 8.0 15.0 0.00 0.00 0.00 76 1022.0
20181117081504 28 288 8.0 15.0 0.00 0.00 0.00 76 1022.1
20181117081007 28 294 7.0 14.0 0.00 0.00 0.00 76 1022.0
20181117080505 28 296 8.0 15.0 0.00 0.00 0.00 76 1022.2
20181117080008 28 299 8.0 15.0 0.00 0.00 0.00 76 1022.1
20181117075504 28 304 8.0 15.0 0.00 0.00 0.00 77 1022.2
20181117075007 28 295 8.0 15.0 0.00 0.00 0.00 77 1022.2
20181117074505 28 286 9.0 17.0 0.00 0.00 0.00 77 1022.3
20181117074007 29 284 10.0 19.0 0.00 0.00 0.00 76 1022.2
20181117073504 28 294 10.0 19.0 0.00 0.00 0.00 76 1022.4
20181117073007 28 291 10.0 18.0 0.00 0.00 0.00 76 1022.5
20181117072504 28 283 9.0 18.0 0.00 0.00 0.00 77 1022.5
20181117072008 28 292 8.0 14.0 0.00 0.00 0.00 77 1022.4
20181117071504 28 301 8.0 15.0 0.00 0.00 0.00 77 1022.3
20181117071007 28 297 7.0 15.0 0.00 0.00 0.00 78 1022.2
20181117070504 28 291 7.0 13.0 0.00 0.00 0.00 78 1022.4
20181117070007 28 297 7.0 13.0 0.00 0.00 0.00 78 1022.5
20181117065503 28 298 7.0 14.0 0.00 0.00 0.00 78 1022.5
20181117065007 28 298 8.0 15.0 0.00 0.00 0.00 78 1022.8
20181117064504 28 301 8.0 15.0 0.00 0.00 0.00 78 1022.5
20181117064007 28 304 8.0 17.0 0.00 0.00 0.00 78 1022.7
20181117063503 27 294 8.0 17.0 0.00 0.00 0.00 78 1022.8
20181117063007 27 276 8.0 14.0 0.00 0.00 0.00 78 1022.8
20181117062503 27 281 7.0 14.0 0.00 0.00 0.00 78 1022.7
20181117062007 27 294 7.0 14.0 0.00 0.00 0.00 78 1022.7
20181117061504 27 295 6.0 15.0 0.00 0.00 0.00 77 1022.8
20181117061007 27 294 7.0 15.0 0.00 0.00 0.00 77 1022.8
20181117060504 27 292 6.0 15.0 0.00 0.00 0.00 77 1022.8
20181117060008 27 288 6.0 13.0 0.00 0.00 0.00 77 1022.8
20181117055504 27 286 8.0 14.0 0.00 0.00 0.00 76 1023.0
20181117055007 27 291 9.0 14.0 0.00 0.00 0.00 76 1022.9
20181117054504 27 296 8.0 14.0 0.00 0.00 0.00 76 1023.0
20181117054007 27 298 6.0 12.0 0.00 0.00 0.00 76 1023.0
20181117053505 27 300 5.0 11.0 0.00 0.00 0.00 76 1023.0
20181117053008 27 300 4.0 9.0 0.00 0.00 0.00 75 1023.1
20181117052007 27 292 6.0 14.0 0.00 0.00 0.00 74 1023.0
20181117051504 27 302 6.0 11.0 0.00 0.00 0.00 73 1023.0
20181117051007 27 300 8.0 15.0 0.00 0.00 0.00 71 1023.1
20181117050503 27 298 7.0 15.0 0.00 0.00 0.00 70 1023.2
20181117050007 28 305 6.0 15.0 0.00 0.00 0.00 69 1023.0
20181117045504 28 301 7.0 17.0 0.00 0.00 0.00 68 1022.9
20181117045007 28 293 6.0 17.0 0.00 0.00 0.00 68 1023.0
20181117044504 28 293 6.0 15.0 0.00 0.00 0.00 67 1023.1
20181117044007 28 296 7.0 15.0 0.00 0.00 0.00 67 1022.8
20181117043505 28 297 7.0 14.0 0.00 0.00 0.00 66 1022.9
20181117043007 28 291 7.0 14.0 0.00 0.00 0.00 66 1023.0
20181117042504 28 285 7.0 13.0 0.00 0.00 0.00 65 1023.1
20181117042007 28 288 7.0 13.0 0.00 0.00 0.00 65 1023.0
20181117041505 28 277 7.0 14.0 0.00 0.00 0.00 64 1023.1
20181117041007 28 283 7.0 14.0 0.00 0.00 0.00 64 1023.2
20181117040504 28 301 7.0 13.0 0.00 0.00 0.00 64 1023.3
20181117040007 28 300 8.0 14.0 0.00 0.00 0.00 63 1023.2
20181117035504 28 293 8.0 15.0 0.00 0.00 0.00 63 1023.2
20181117035007 28 291 8.0 15.0 0.00 0.00 0.00 64 1023.3
20181117034505 28 304 8.0 15.0 0.00 0.00 0.00 64 1023.4
20181117034008 28 303 9.0 17.0 0.00 0.00 0.00 63 1023.4
20181117033504 28 296 11.0 20.0 0.00 0.00 0.00 63 1023.4
20181117033007 28 294 12.0 23.0 0.00 0.00 0.00 61 1023.6
20181117032504 28 297 11.0 23.0 0.00 0.00 0.00 60 1023.7
20181117032007 28 300 10.0 23.0 0.00 0.00 0.00 59 1023.6
20181117031504 28 291 7.0 17.0 0.00 0.00 0.00 58 1023.7
20181117031007 29 288 6.0 12.0 0.00 0.00 0.00 58 1023.7
20181117030504 29 289 7.0 14.0 0.00 0.00 0.00 58 1023.8
20181117030007 29 287 7.0 14.0 0.00 0.00 0.00 57 1023.8
20181117025504 29 289 7.0 14.0 0.00 0.00 0.00 57 1023.7
20181117025007 29 294 8.0 14.0 0.00 0.00 0.00 56 1023.8
20181117024504 29 297 7.0 12.0 0.00 0.00 0.00 56 1024.0
20181117024007 29 315 7.0 15.0 0.00 0.00 0.00 56 1023.9
20181117023504 29 321 9.0 15.0 0.00 0.00 0.00 56 1023.7
20181117023006 29 311 9.0 15.0 0.00 0.00 0.00 55 1023.9
20181117022504 29 303 10.0 17.0 0.00 0.00 0.00 55 1023.9
20181117022007 29 294 10.0 17.0 0.00 0.00 0.00 55 1023.9
20181117021504 29 285 10.0 19.0 0.00 0.00 0.00 55 1024.0
20181117021007 29 287 9.0 19.0 0.00 0.00 0.00 55 1024.2
20181117020504 29 298 8.0 16.0 0.00 0.00 0.00 55 1024.1
20181117020008 29 299 8.0 17.0 0.00 0.00 0.00 55 1024.3
20181117015504 29 299 8.0 17.0 0.00 0.00 0.00 55 1024.2
20181117015007 29 301 9.0 17.0 0.00 0.00 0.00 55 1024.4
20181117014504 29 291 10.0 19.0 0.00 0.00 0.00 55 1024.5
20181117014007 29 278 10.0 19.0 0.00 0.00 0.00 55 1024.4
20181117013504 29 282 9.0 16.0 0.00 0.00 0.00 54 1024.4
20181117013007 30 289 8.0 15.0 0.00 0.00 0.00 53 1024.4
20181117012505 30 290 9.0 15.0 0.00 0.00 0.00 53 1024.5
20181117012007 30 292 9.0 16.0 0.00 0.00 0.00 52 1024.5
20181117011504 30 289 8.0 16.0 0.00 0.00 0.00 52 1024.5
20181117011007 30 292 8.0 15.0 0.00 0.00 0.00 51 1024.7
20181117010505 30 307 9.0 17.0 0.00 0.00 0.00 51 1024.9
20181117010007 30 301 9.0 17.0 0.00 0.00 0.00 51 1025.0
20181117005504 30 286 8.0 16.0 0.00 0.00 0.00 49 1025.0
20181117005007 31 290 9.0 17.0 0.00 0.00 0.00 49 1025.0
20181117004505 31 285 10.0 17.0 0.00 0.00 0.00 49 1024.9
20181117004008 31 287 11.0 17.0 0.00 0.00 0.00 48 1025.0
20181117003504 31 295 10.0 18.0 0.00 0.00 0.00 48 1025.2
20181117003007 31 284 11.0 18.0 0.00 0.00 0.00 47 1025.2
20181117002504 31 288 12.0 22.0 0.00 0.00 0.00 47 1025.2
20181117002007 31 296 12.0 22.0 0.00 0.00 0.00 47 1025.4
20181117001504 31 296 12.0 23.0 0.00 0.00 0.00 46 1025.4
20181117001007 32 299 14.0 24.0 0.00 0.00 0.00 45 1025.5
20181117000505 32 290 13.0 24.0 0.00 0.00 0.00 45 1025.5
20181117000007 32 289 12.0 23.0 0.00 0.00 0.00 43 1025.4
20181116235504 32 308 11.0 21.0 0.00 0.00 0.00 41 1025.5
20181116235008 33 307 10.0 17.0 0.00 0.00 0.00 38 1025.4
20181116234504 33 306 11.0 25.0 0.00 0.00 0.00 36 1025.6
20181116234007 33 300 12.0 25.0 0.00 0.00 0.00 36 1025.6
20181116233504 33 288 12.0 24.0 0.00 0.00 0.00 36 1025.7
20181116233007 33 300 13.0 23.0 0.00 0.00 0.00 35 1025.6
20181116232504 33 309 13.0 24.0 0.00 0.00 0.00 35 1025.6
20181116232007 33 297 13.0 26.0 0.00 0.00 0.00 35 1025.6
20181116231504 33 289 12.0 26.0 0.00 0.00 0.00 34 1025.9
20181116231008 34 290 12.0 21.0 0.00 0.00 0.00 34 1025.9
20181116230504 34 296 14.0 27.0 0.00 0.00 0.00 33 1026.1
20181116230007 34 301 15.0 27.0 0.00 0.00 0.00 33 1026.0
20181116225504 34 298 14.0 26.0 0.00 0.00 0.00 33 1026.0
20181116225007 34 300 14.0 27.0 0.00 0.00 0.00 32 1026.2
20181116224504 34 303 14.0 27.0 0.00 0.00 0.00 30 1026.2
20181116224007 34 297 14.0 27.0 0.00 0.00 0.00 29 1026.2
20181116223504 34 297 17.0 31.0 0.00 0.00 0.00 27 1026.4
20181116223008 35 300 17.0 31.0 0.00 0.00 0.00 26 1026.5
20181116222504 35 291 18.0 31.0 0.00 0.00 0.00 23 1026.6
20181116222007 35 299 19.0 35.0 0.00 0.00 0.00 21 1026.6
20181116221504 35 307 17.0 35.0 0.00 0.00 0.00 19 1026.7
20181116221007 35 300 14.0 25.0 0.00 0.00 0.00 18 1027.0
20181116220505 35 293 12.0 24.0 0.00 0.00 0.00 19 1027.0
20181116220007 35 289 11.0 24.0 0.00 0.00 0.00 18 1027.1
20181116215504 35 280 10.0 20.0 0.00 0.00 0.00 18 1026.9
20181116215007 35 279 9.0 17.0 0.00 0.00 0.00 18 1027.1
20181116214505 35 279 9.0 21.0 0.00 0.00 0.00 19 1027.1
20181116214007 35 270 9.0 21.0 0.00 0.00 0.00 19 1027.3
20181116213505 35 270 9.0 17.0 0.00 0.00 0.00 20 1027.4
20181116213007 35 268 9.0 19.0 0.00 0.00 0.00 20 1027.4
20181116212504 35 278 9.0 19.0 0.00 0.00 0.00 20 1027.7
20181116212007 35 288 7.0 15.0 0.00 0.00 0.00 21 1027.6
20181116211503 35 286 7.0 17.0 0.00 0.00 0.00 22 1027.7
20181116211007 35 295 8.0 17.0 0.00 0.00 0.00 22 1027.6
20181116210505 35 298 9.0 17.0 0.00 0.00 0.00 22 1027.8
20181116210007 35 296 9.0 17.0 0.00 0.00 0.00 22 1028.0
20181116205504 35 287 10.0 22.0 0.00 0.00 0.00 23 1028.0
20181116205007 35 279 10.0 22.0 0.00 0.00 0.00 24 1028.1
20181116204504 35 278 10.0 22.0 0.00 0.00 0.00 24 1028.1
20181116204007 34 284 9.0 19.0 0.00 0.00 0.00 27 1028.1
20181116203504 34 294 9.0 17.0 0.00 0.00 0.00 29 1028.3
20181116203007 34 289 8.0 17.0 0.00 0.00 0.00 30 1028.4
20181116202504 34 278 6.0 12.0 0.00 0.00 0.00 33 1028.5
20181116202007 33 266 5.0 11.0 0.00 0.00 0.00 34 1028.7
20181116201504 33 270 4.0 10.0 0.00 0.00 0.00 35 1028.7
20181116201007 33 266 4.0 11.0 0.00 0.00 0.00 36 1028.9
20181116200504 33 242 5.0 11.0 0.00 0.00 0.00 36 1028.9
20181116200007 34 236 5.0 11.0 0.00 0.00 0.00 37 1029.1
20181116195505 33 240 5.0 11.0 0.00 0.00 0.00 38 1029.3
20181116195008 33 254 6.0 15.0 0.00 0.00 0.00 39 1029.2
20181116194504 34 265 6.0 15.0 0.00 0.00 0.00 39 1029.2
20181116194008 33 272 6.0 11.0 0.00 0.00 0.00 40 1029.2
20181116193504 33 270 6.0 12.0 0.00 0.00 0.00 40 1029.3
20181116193008 33 272 6.0 12.0 0.00 0.00 0.00 41 1029.3
20181116192505 34 270 5.0 11.0 0.00 0.00 0.00 42 1029.4
20181116192007 34 250 5.0 11.0 0.00 0.00 0.00 43 1029.3
20181116191504 33 250 5.0 11.0 0.00 0.00 0.00 44 1029.4
20181116191007 33 259 4.0 11.0 0.00 0.00 0.00 45 1029.4
20181116190504 34 267 5.0 12.0 0.00 0.00 0.00 46 1029.7
20181116190008 34 264 5.0 12.0 0.00 0.00 0.00 47 1029.8
20181116185504 34 264 6.0 15.0 0.00 0.00 0.00 48 1029.9
20181116185007 33 274 6.0 15.0 0.00 0.00 0.00 48 1030.0
20181116184504 33 284 6.0 13.0 0.00 0.00 0.00 49 1030.2
20181116184008 33 275 6.0 13.0 0.00 0.00 0.00 50 1030.3
20181116183505 33 260 5.0 11.0 0.00 0.00 0.00 52 1030.5
20181116183007 33 265 5.0 11.0 0.00 0.00 0.00 53 1030.5
20181116182504 33 268 5.0 12.0 0.00 0.00 0.00 54 1030.7
20181116182007 33 248 6.0 12.0 0.00 0.00 0.00 55 1030.9
20181116181504 33 244 6.0 12.0 0.00 0.00 0.00 56 1031.0
20181116181007 33 241 6.0 14.0 0.00 0.00 0.00 56 1030.8
20181116180504 33 248 5.0 14.0 0.00 0.00 0.00 57 1031.0
20181116180007 33 262 5.0 10.0 0.00 0.00 0.00 57 1031.1
20181116175504 33 255 5.0 13.0 0.00 0.00 0.00 57 1031.2
20181116175007 33 253 6.0 15.0 0.00 0.00 0.00 58 1031.3
20181116174504 33 253 7.0 15.0 0.00 0.00 0.00 58 1031.4
20181116174008 33 258 6.0 15.0 0.00 0.00 0.00 58 1031.6
20181116173504 33 253 5.0 15.0 0.00 0.00 0.00 57 1031.7
20181116173007 33 255 4.0 11.0 0.00 0.00 0.00 57 1031.8
20181116172505 33 254 4.0 11.0 0.00 0.00 0.00 57 1031.8
20181116172007 33 249 4.0 9.0 0.00 0.00 0.00 57 1032.0
20181116171504 33 251 4.0 9.0 0.00 0.00 0.00 57 1032.1
20181116171007 33 232 4.0 9.0 0.00 0.00 0.00 57 1032.3
20181116170504 33 229 5.0 11.0 0.00 0.00 0.00 57 1032.3
20181116170007 33 233 5.0 11.0 0.00 0.00 0.00 57 1032.4
20181116165504 33 231 5.0 11.0 0.00 0.00 0.00 57 1032.4
20181116165007 33 229 5.0 10.0 0.00 0.00 0.00 57 1032.6
20181116164504 33 233 5.0 11.0 0.00 0.00 0.00 57 1032.7
20181116164008 33 241 4.0 11.0 0.00 0.00 0.00 56 1032.7
20181116163504 33 249 4.0 9.0 0.00 0.00 0.00 56 1032.9
20181116163008 33 251 5.0 9.0 0.00 0.00 0.00 56 1032.9
20181116162505 33 262 5.0 11.0 0.00 0.00 0.00 56 1032.9
20181116162007 33 269 5.0 11.0 0.00 0.00 0.00 55 1033.0
20181116161504 33 268 6.0 11.0 0.00 0.00 0.00 55 1033.3
20181116161007 33 268 5.0 11.0 0.00 0.00 0.00 55 1033.3
20181116160504 33 264 6.0 11.0 0.00 0.00 0.00 55 1033.5
20181116160007 33 256 5.0 12.0 0.00 0.00 0.00 54 1033.4
20181116155504 34 265 7.0 15.0 0.00 0.00 0.00 54 1033.4
20181116155008 34 273 9.0 17.0 0.00 0.00 0.00 54 1033.7
20181116154505 34 278 9.0 17.0 0.00 0.00 0.00 54 1033.6
20181116154007 33 284 10.0 17.0 0.00 0.00 0.00 54 1033.8
20181116153504 33 287 9.0 17.0 0.00 0.00 0.00 54 1034.0
20181116153007 33 280 8.0 17.0 0.00 0.00 0.00 54 1034.0
20181116152504 33 282 8.0 15.0 0.00 0.00 0.00 53 1034.2
20181116152007 33 288 8.0 15.0 0.00 0.00 0.00 53 1034.3
20181116151504 33 277 8.0 14.0 0.00 0.00 0.00 53 1034.3
20181116151007 33 266 8.0 15.0 0.00 0.00 0.00 53 1034.3
20181116150503 33 261 9.0 15.0 0.00 0.00 0.00 53 1034.4
20181116150008 33 272 9.0 15.0 0.00 0.00 0.00 53 1034.5
20181116145504 33 286 9.0 20.0 0.00 0.00 0.00 53 1034.8
20181116145007 33 272 9.0 20.0 0.00 0.00 0.00 53 1035.0
20181116144504 33 272 10.0 20.0 0.00 0.00 0.00 52 1035.0
20181116144007 33 277 10.0 20.0 0.00 0.00 0.00 52 1035.2
20181116143503 33 274 10.0 18.0 0.00 0.00 0.00 52 1035.3
20181116143007 33 277 10.0 18.0 0.00 0.00 0.00 52 1035.4
20181116142504 33 264 8.0 16.0 0.00 0.00 0.00 52 1035.5
20181116142007 33 264 8.0 15.0 0.00 0.00 0.00 52 1035.4
20181116141504 33 278 7.0 12.0 0.00 0.00 0.00 52 1035.7
20181116141007 33 274 6.0 15.0 0.00 0.00 0.00 53 1035.6
20181116140503 33 277 5.0 15.0 0.00 0.00 0.00 53 1035.9
20181116140008 33 270 5.0 9.0 0.00 0.00 0.00 53 1035.9
20181116135503 33 265 5.0 10.0 0.00 0.00 0.00 53 1036.0
20181116135008 33 270 6.0 11.0 0.00 0.00 0.00 53 1036.0
20181116134505 33 266 7.0 12.0 0.00 0.00 0.00 53 1036.2
20181116134008 33 270 6.0 12.0 0.00 0.00 0.00 53 1036.3
20181116133505 33 284 7.0 12.0 0.00 0.00 0.00 53 1036.3
20181116133007 33 289 7.0 15.0 0.00 0.00 0.00 53 1036.4
20181116132504 33 283 6.0 15.0 0.00 0.00 0.00 53 1036.4
20181116132007 33 286 6.0 11.0 0.00 0.00 0.00 53 1036.5
20181116131504 33 295 7.0 17.0 0.00 0.00 0.00 52 1036.8
20181116131007 33 278 8.0 17.0 0.00 0.00 0.00 52 1036.6
20181116130504 33 267 7.0 15.0 0.00 0.00 0.00 52 1036.6
20181116130008 33 277 6.0 11.0 0.00 0.00 0.00 52 1036.8
20181116125504 33 278 6.0 11.0 0.00 0.00 0.00 52 1036.9
20181116125007 33 282 6.0 12.0 0.00 0.00 0.00 52 1036.8
20181116124505 33 282 7.0 12.0 0.00 0.00 0.00 52 1036.9
20181116124007 33 281 6.0 12.0 0.00 0.00 0.00 51 1037.0
20181116123505 33 284 5.0 12.0 0.00 0.00 0.00 51 1037.0
20181116123007 33 278 7.0 15.0 0.00 0.00 0.00 51 1037.1
20181116122504 33 284 9.0 15.0 0.00 0.00 0.00 51 1037.1
20181116122007 33 285 8.0 14.0 0.00 0.00 0.00 51 1037.2
20181116121504 33 275 8.0 15.0 0.00 0.00 0.00 51 1037.3
20181116121007 33 270 7.0 15.0 0.00 0.00 0.00 51 1037.3
20181116120504 33 266 8.0 15.0 0.00 0.00 0.00 52 1037.2
20181116120007 33 267 9.0 15.0 0.00 0.00 0.00 52 1037.4
20181116115504 33 266 8.0 15.0 0.00 0.00 0.00 52 1037.4
20181116115007 33 266 7.0 12.0 0.00 0.00 0.00 53 1037.5
20181116114504 33 256 5.0 11.0 0.00 0.00 0.00 55 1037.6